Year,Month,Day,Hour,Minute,Value (Times are PST for temperature in C)
2010,09,14,00,00,11.30
2010,09,14,00,01,11.20
2010,09,14,00,02,11.20
2010,09,14,00,03,11.20
2010,09,14,00,04,11.20
2010,09,14,00,05,11.20
2010,09,14,00,06,11.20
2010,09,14,00,07,11.20
2010,09,14,00,08,11.20
2010,09,14,00,09,11.20
2010,09,14,00,10,11.20
2010,09,14,00,11,11.20
2010,09,14,00,12,11.20
2010,09,14,00,13,11.20
2010,09,14,00,14,11.20
2010,09,14,00,15,11.20
2010,09,14,00,16,11.20
2010,09,14,00,17,11.20
2010,09,14,00,18,11.20
2010,09,14,00,19,11.20
2010,09,14,00,20,11.20
2010,09,14,00,21,11.20
2010,09,14,00,22,11.20
2010,09,14,00,23,11.10
2010,09,14,00,24,11.10
2010,09,14,00,25,11.10
2010,09,14,00,26,11.10
2010,09,14,00,27,11.10
2010,09,14,00,28,11.10
2010,09,14,00,29,11.10
2010,09,14,00,30,11.10
2010,09,14,00,31,11.10
2010,09,14,00,32,11.10
2010,09,14,00,33,11.10
2010,09,14,00,34,11.10
2010,09,14,00,35,11.10
2010,09,14,00,36,11.10
2010,09,14,00,37,11.10
2010,09,14,00,38,11.10
2010,09,14,00,39,11.10
2010,09,14,00,40,11.10
2010,09,14,00,41,11.10
2010,09,14,00,42,11.10
2010,09,14,00,43,11.10
2010,09,14,00,44,11.10
2010,09,14,00,45,11.20
2010,09,14,00,46,11.20
2010,09,14,00,47,11.20
2010,09,14,00,48,11.20
2010,09,14,00,49,11.20
2010,09,14,00,50,11.20
2010,09,14,00,51,11.20
2010,09,14,00,52,11.20
2010,09,14,00,53,11.20
2010,09,14,00,54,11.20
2010,09,14,00,55,11.20
2010,09,14,00,56,11.20
2010,09,14,00,57,11.20
2010,09,14,00,58,11.20
2010,09,14,00,59,11.20
2010,09,14,01,00,11.20
2010,09,14,01,01,11.20
2010,09,14,01,02,11.20
2010,09,14,01,03,11.20
2010,09,14,01,04,11.20
2010,09,14,01,05,11.20
2010,09,14,01,06,11.20
2010,09,14,01,07,11.20
2010,09,14,01,08,11.20
2010,09,14,01,09,11.20
2010,09,14,01,10,11.20
2010,09,14,01,11,11.20
2010,09,14,01,12,11.20
2010,09,14,01,13,11.20
2010,09,14,01,14,11.20
2010,09,14,01,15,11.20
2010,09,14,01,16,11.20
2010,09,14,01,17,11.20
2010,09,14,01,18,11.20
2010,09,14,01,19,11.20
2010,09,14,01,20,11.20
2010,09,14,01,21,11.20
2010,09,14,01,22,11.20
2010,09,14,01,23,11.20
2010,09,14,01,24,11.20
2010,09,14,01,25,11.20
2010,09,14,01,26,11.20
2010,09,14,01,27,11.20
2010,09,14,01,28,11.20
2010,09,14,01,29,11.20
2010,09,14,01,30,11.20
2010,09,14,01,31,11.30
2010,09,14,01,32,11.30
2010,09,14,01,33,11.30
2010,09,14,01,34,11.30
2010,09,14,01,35,11.30
2010,09,14,01,36,11.30
2010,09,14,01,37,11.30
2010,09,14,01,38,11.30
2010,09,14,01,39,11.30
2010,09,14,01,40,11.30
2010,09,14,01,41,11.30
2010,09,14,01,42,11.30
2010,09,14,01,43,11.30
2010,09,14,01,44,11.30
2010,09,14,01,45,11.30
2010,09,14,01,46,11.30
2010,09,14,01,47,11.30
2010,09,14,01,48,11.30
2010,09,14,01,49,11.30
2010,09,14,01,50,11.30
2010,09,14,01,51,11.30
2010,09,14,01,52,11.30
2010,09,14,01,53,11.30
2010,09,14,01,54,11.30
2010,09,14,01,55,11.40
2010,09,14,01,56,11.40
2010,09,14,01,57,11.40
2010,09,14,01,58,11.40
2010,09,14,01,59,11.40
2010,09,14,02,00,11.50
2010,09,14,02,01,11.50
2010,09,14,02,02,11.50
2010,09,14,02,03,11.50
2010,09,14,02,04,11.50
2010,09,14,02,05,11.50
2010,09,14,02,06,11.60
2010,09,14,02,07,11.50
2010,09,14,02,08,11.50
2010,09,14,02,09,11.50
2010,09,14,02,10,11.50
2010,09,14,02,11,11.50
2010,09,14,02,12,11.50
2010,09,14,02,13,11.50
2010,09,14,02,14,11.50
2010,09,14,02,15,11.40
2010,09,14,02,16,11.40
2010,09,14,02,17,11.40
2010,09,14,02,18,11.50
2010,09,14,02,19,11.50
2010,09,14,02,20,11.50
2010,09,14,02,21,11.50
2010,09,14,02,22,11.50
2010,09,14,02,23,11.50
2010,09,14,02,24,11.50
2010,09,14,02,25,11.50
2010,09,14,02,26,11.50
2010,09,14,02,27,11.60
2010,09,14,02,28,11.60
2010,09,14,02,29,11.60
2010,09,14,02,30,11.60
2010,09,14,02,31,11.60
2010,09,14,02,32,11.60
2010,09,14,02,33,11.60
2010,09,14,02,34,11.60
2010,09,14,02,35,11.60
2010,09,14,02,36,11.60
2010,09,14,02,37,11.60
2010,09,14,02,38,11.60
2010,09,14,02,39,11.60
2010,09,14,02,40,11.60
2010,09,14,02,41,11.60
2010,09,14,02,42,11.60
2010,09,14,02,43,11.60
2010,09,14,02,44,11.60
2010,09,14,02,45,11.60
2010,09,14,02,46,11.60
2010,09,14,02,47,11.60
2010,09,14,02,48,11.60
2010,09,14,02,49,11.60
2010,09,14,02,50,11.50
2010,09,14,02,51,11.50
2010,09,14,02,52,11.50
2010,09,14,02,53,11.50
2010,09,14,02,54,11.50
2010,09,14,02,55,11.50
2010,09,14,02,56,11.50
2010,09,14,02,57,11.50
2010,09,14,02,58,11.50
2010,09,14,02,59,11.60
2010,09,14,03,00,11.60
2010,09,14,03,01,11.60
2010,09,14,03,02,11.60
2010,09,14,03,03,11.60
2010,09,14,03,04,11.60
2010,09,14,03,05,11.60
2010,09,14,03,06,11.60
2010,09,14,03,07,11.60
2010,09,14,03,08,11.60
2010,09,14,03,09,11.60
2010,09,14,03,10,11.60
2010,09,14,03,11,11.50
2010,09,14,03,12,11.50
2010,09,14,03,13,11.60
2010,09,14,03,14,11.60
2010,09,14,03,15,11.60
2010,09,14,03,16,11.60
2010,09,14,03,17,11.60
2010,09,14,03,18,11.60
2010,09,14,03,19,11.60
2010,09,14,03,20,11.60
2010,09,14,03,21,11.60
2010,09,14,03,22,11.60
2010,09,14,03,23,11.50
2010,09,14,03,24,11.50
2010,09,14,03,25,11.50
2010,09,14,03,26,11.50
2010,09,14,03,27,11.50
2010,09,14,03,28,11.50
2010,09,14,03,29,11.50
2010,09,14,03,30,11.50
2010,09,14,03,31,11.50
2010,09,14,03,32,11.50
2010,09,14,03,33,11.50
2010,09,14,03,34,11.50
2010,09,14,03,35,11.40
2010,09,14,03,36,11.40
2010,09,14,03,37,11.40
2010,09,14,03,38,11.40
2010,09,14,03,39,11.40
2010,09,14,03,40,11.40
2010,09,14,03,41,11.40
2010,09,14,03,42,11.40
2010,09,14,03,43,11.40
2010,09,14,03,44,11.40
2010,09,14,03,45,11.40
2010,09,14,03,46,11.40
2010,09,14,03,47,11.40
2010,09,14,03,48,11.40
2010,09,14,03,49,11.40
2010,09,14,03,50,11.40
2010,09,14,03,51,11.40
2010,09,14,03,52,11.40
2010,09,14,03,53,11.40
2010,09,14,03,54,11.40
2010,09,14,03,55,11.40
2010,09,14,03,56,11.40
2010,09,14,03,57,11.40
2010,09,14,03,58,11.40
2010,09,14,03,59,11.30
2010,09,14,04,00,11.30
2010,09,14,04,01,11.30
2010,09,14,04,02,11.30
2010,09,14,04,03,11.30
2010,09,14,04,04,11.30
2010,09,14,04,05,11.30
2010,09,14,04,06,11.30
2010,09,14,04,07,11.30
2010,09,14,04,08,11.30
2010,09,14,04,09,11.30
2010,09,14,04,10,11.30
2010,09,14,04,11,11.30
2010,09,14,04,12,11.30
2010,09,14,04,13,11.30
2010,09,14,04,14,11.30
2010,09,14,04,15,11.30
2010,09,14,04,16,11.30
2010,09,14,04,17,11.30
2010,09,14,04,18,11.30
2010,09,14,04,19,11.30
2010,09,14,04,20,11.30
2010,09,14,04,21,11.30
2010,09,14,04,22,11.30
2010,09,14,04,23,11.30
2010,09,14,04,24,11.30
2010,09,14,04,25,11.30
2010,09,14,04,26,11.30
2010,09,14,04,27,11.30
2010,09,14,04,28,11.30
2010,09,14,04,29,11.30
2010,09,14,04,30,11.20
2010,09,14,04,31,11.20
2010,09,14,04,32,11.20
2010,09,14,04,33,11.20
2010,09,14,04,34,11.20
2010,09,14,04,35,11.20
2010,09,14,04,36,11.20
2010,09,14,04,37,11.20
2010,09,14,04,38,11.20
2010,09,14,04,39,11.20
2010,09,14,04,40,11.20
2010,09,14,04,41,11.20
2010,09,14,04,42,11.20
2010,09,14,04,43,11.20
2010,09,14,04,44,11.20
2010,09,14,04,45,11.20
2010,09,14,04,46,11.20
2010,09,14,04,47,11.20
2010,09,14,04,48,11.10
2010,09,14,04,49,11.10
2010,09,14,04,50,11.10
2010,09,14,04,51,11.10
2010,09,14,04,52,11.10
2010,09,14,04,53,11.10
2010,09,14,04,54,11.10
2010,09,14,04,55,11.10
2010,09,14,04,56,11.10
2010,09,14,04,57,11.10
2010,09,14,04,58,11.10
2010,09,14,04,59,11.10
2010,09,14,05,00,11.10
2010,09,14,05,01,11.10
2010,09,14,05,02,11.10
2010,09,14,05,03,11.00
2010,09,14,05,04,11.00
2010,09,14,05,05,11.00
2010,09,14,05,06,11.00
2010,09,14,05,07,11.00
2010,09,14,05,08,10.90
2010,09,14,05,09,10.90
2010,09,14,05,10,10.90
2010,09,14,05,11,10.90
2010,09,14,05,12,10.90
2010,09,14,05,13,10.80
2010,09,14,05,14,10.80
2010,09,14,05,15,10.80
2010,09,14,05,16,10.80
2010,09,14,05,17,10.80
2010,09,14,05,18,10.80
2010,09,14,05,19,10.80
2010,09,14,05,20,10.80
2010,09,14,05,21,10.80
2010,09,14,05,22,10.80
2010,09,14,05,23,10.80
2010,09,14,05,24,10.70
2010,09,14,05,25,10.70
2010,09,14,05,26,10.70
2010,09,14,05,27,10.70
2010,09,14,05,28,10.70
2010,09,14,05,29,10.70
2010,09,14,05,30,10.70
2010,09,14,05,31,10.70
2010,09,14,05,32,10.70
2010,09,14,05,33,10.70
2010,09,14,05,34,10.70
2010,09,14,05,35,10.70
2010,09,14,05,36,10.70
2010,09,14,05,37,10.70
2010,09,14,05,38,10.70
2010,09,14,05,39,10.70
2010,09,14,05,40,10.70
2010,09,14,05,41,10.70
2010,09,14,05,42,10.60
2010,09,14,05,43,10.60
2010,09,14,05,44,10.60
2010,09,14,05,45,10.60
2010,09,14,05,46,10.60
2010,09,14,05,47,10.60
2010,09,14,05,48,10.60
2010,09,14,05,49,10.60
2010,09,14,05,50,10.50
2010,09,14,05,51,10.50
2010,09,14,05,52,10.50
2010,09,14,05,53,10.50
2010,09,14,05,54,10.50
2010,09,14,05,55,10.50
2010,09,14,05,56,10.50
2010,09,14,05,57,10.50
2010,09,14,05,58,10.50
2010,09,14,05,59,10.50
2010,09,14,06,00,10.50
2010,09,14,06,01,10.40
2010,09,14,06,02,10.40
2010,09,14,06,03,10.40
2010,09,14,06,04,10.40
2010,09,14,06,05,10.40
2010,09,14,06,06,10.40
2010,09,14,06,07,10.40
2010,09,14,06,08,10.40
2010,09,14,06,09,10.40
2010,09,14,06,10,10.40
2010,09,14,06,11,10.40
2010,09,14,06,12,10.40
2010,09,14,06,13,10.30
2010,09,14,06,14,10.30
2010,09,14,06,15,10.30
2010,09,14,06,16,10.30
2010,09,14,06,17,10.30
2010,09,14,06,18,10.30
2010,09,14,06,19,10.30
2010,09,14,06,20,10.30
2010,09,14,06,21,10.30
2010,09,14,06,22,10.30
2010,09,14,06,23,10.30
2010,09,14,06,24,10.30
2010,09,14,06,25,10.20
2010,09,14,06,26,10.20
2010,09,14,06,27,10.20
2010,09,14,06,28,10.20
2010,09,14,06,29,10.20
2010,09,14,06,30,10.20
2010,09,14,06,31,10.20
2010,09,14,06,32,10.20
2010,09,14,06,33,10.20
2010,09,14,06,34,10.20
2010,09,14,06,35,10.20
2010,09,14,06,36,10.20
2010,09,14,06,37,10.20
2010,09,14,06,38,10.20
2010,09,14,06,39,10.20
2010,09,14,06,40,10.20
2010,09,14,06,41,10.20
2010,09,14,06,42,10.20
2010,09,14,06,43,10.20
2010,09,14,06,44,10.20
2010,09,14,06,45,10.20
2010,09,14,06,46,10.20
2010,09,14,06,47,10.20
2010,09,14,06,48,10.20
2010,09,14,06,49,10.20
2010,09,14,06,50,10.20
2010,09,14,06,51,10.20
2010,09,14,06,52,10.20
2010,09,14,06,53,10.20
2010,09,14,06,54,10.20
2010,09,14,06,55,10.20
2010,09,14,06,56,10.20
2010,09,14,06,57,10.20
2010,09,14,06,58,10.20
2010,09,14,06,59,10.20
2010,09,14,07,00,10.20
2010,09,14,07,01,10.20
2010,09,14,07,02,10.20
2010,09,14,07,03,10.20
2010,09,14,07,04,10.20
2010,09,14,07,05,10.20
2010,09,14,07,06,10.20
2010,09,14,07,07,10.20
2010,09,14,07,08,10.20
2010,09,14,07,09,10.20
2010,09,14,07,10,10.20
2010,09,14,07,11,10.30
2010,09,14,07,12,10.30
2010,09,14,07,13,10.30
2010,09,14,07,14,10.30
2010,09,14,07,15,10.30
2010,09,14,07,16,10.30
2010,09,14,07,17,10.30
2010,09,14,07,18,10.30
2010,09,14,07,19,10.30
2010,09,14,07,20,10.30
2010,09,14,07,21,10.30
2010,09,14,07,22,10.30
2010,09,14,07,23,10.30
2010,09,14,07,24,10.30
2010,09,14,07,25,10.30
2010,09,14,07,26,10.30
2010,09,14,07,27,10.30
2010,09,14,07,28,10.30
2010,09,14,07,29,10.30
2010,09,14,07,30,10.30
2010,09,14,07,31,10.40
2010,09,14,07,32,10.40
2010,09,14,07,33,10.30
2010,09,14,07,34,10.30
2010,09,14,07,35,10.30
2010,09,14,07,36,10.30
2010,09,14,07,37,10.30
2010,09,14,07,38,10.30
2010,09,14,07,39,10.30
2010,09,14,07,40,10.30
2010,09,14,07,41,10.30
2010,09,14,07,42,10.30
2010,09,14,07,43,10.30
2010,09,14,07,44,10.40
2010,09,14,07,45,10.40
2010,09,14,07,46,10.40
2010,09,14,07,47,10.40
2010,09,14,07,48,10.40
2010,09,14,07,49,10.40
2010,09,14,07,50,10.50
2010,09,14,07,51,10.50
2010,09,14,07,52,10.50
2010,09,14,07,53,10.50
2010,09,14,07,54,10.50
2010,09,14,07,55,10.50
2010,09,14,07,56,10.50
2010,09,14,07,57,10.50
2010,09,14,07,58,10.50
2010,09,14,07,59,10.50
2010,09,14,08,00,10.50
2010,09,14,08,01,10.50
2010,09,14,08,02,10.50
2010,09,14,08,03,10.50
2010,09,14,08,04,10.50
2010,09,14,08,05,10.50
2010,09,14,08,06,10.50
2010,09,14,08,07,10.60
2010,09,14,08,08,10.60
2010,09,14,08,09,10.60
2010,09,14,08,10,10.60
2010,09,14,08,11,10.60
2010,09,14,08,12,10.60
2010,09,14,08,13,10.70
2010,09,14,08,14,10.70
2010,09,14,08,15,10.70
2010,09,14,08,16,10.70
2010,09,14,08,17,10.70
2010,09,14,08,18,10.70
2010,09,14,08,19,10.70
2010,09,14,08,20,10.80
2010,09,14,08,21,10.80
2010,09,14,08,22,10.80
2010,09,14,08,23,10.80
2010,09,14,08,24,10.80
2010,09,14,08,25,10.80
2010,09,14,08,26,10.80
2010,09,14,08,27,10.80
2010,09,14,08,28,10.80
2010,09,14,08,29,10.80
2010,09,14,08,30,10.90
2010,09,14,08,31,10.90
2010,09,14,08,32,10.90
2010,09,14,08,33,10.90
2010,09,14,08,34,10.90
2010,09,14,08,35,10.90
2010,09,14,08,36,11.00
2010,09,14,08,37,11.00
2010,09,14,08,38,11.00
2010,09,14,08,39,11.10
2010,09,14,08,40,11.10
2010,09,14,08,41,11.10
2010,09,14,08,42,11.10
2010,09,14,08,43,11.10
2010,09,14,08,44,11.10
2010,09,14,08,45,11.10
2010,09,14,08,46,11.10
2010,09,14,08,47,11.10
2010,09,14,08,48,11.10
2010,09,14,08,49,11.10
2010,09,14,08,50,11.00
2010,09,14,08,51,11.00
2010,09,14,08,52,11.00
2010,09,14,08,53,11.00
2010,09,14,08,54,10.90
2010,09,14,08,55,10.90
2010,09,14,08,56,10.90
2010,09,14,08,57,10.90
2010,09,14,08,58,11.00
2010,09,14,08,59,11.00
2010,09,14,09,00,11.10
2010,09,14,09,01,11.10
2010,09,14,09,02,11.10
2010,09,14,09,03,11.10
2010,09,14,09,04,11.10
2010,09,14,09,05,11.20
2010,09,14,09,06,11.20
2010,09,14,09,07,11.20
2010,09,14,09,08,11.30
2010,09,14,09,09,11.30
2010,09,14,09,10,11.40
2010,09,14,09,11,11.40
2010,09,14,09,12,11.40
2010,09,14,09,13,11.50
2010,09,14,09,14,11.50
2010,09,14,09,15,11.60
2010,09,14,09,16,11.60
2010,09,14,09,17,11.70
2010,09,14,09,18,11.70
2010,09,14,09,19,11.80
2010,09,14,09,20,11.80
2010,09,14,09,21,11.90
2010,09,14,09,22,12.00
2010,09,14,09,23,12.00
2010,09,14,09,24,12.10
2010,09,14,09,25,12.20
2010,09,14,09,26,12.20
2010,09,14,09,27,12.30
2010,09,14,09,28,12.30
2010,09,14,09,29,12.40
2010,09,14,09,30,12.40
2010,09,14,09,31,12.40
2010,09,14,09,32,12.40
2010,09,14,09,33,12.40
2010,09,14,09,34,12.40
2010,09,14,09,35,12.40
2010,09,14,09,36,12.40
2010,09,14,09,37,12.40
2010,09,14,09,38,12.50
2010,09,14,09,39,12.50
2010,09,14,09,40,12.50
2010,09,14,09,41,12.60
2010,09,14,09,42,12.60
2010,09,14,09,43,12.70
2010,09,14,09,44,12.70
2010,09,14,09,45,12.80
2010,09,14,09,46,12.80
2010,09,14,09,47,12.80
2010,09,14,09,48,12.90
2010,09,14,09,49,12.90
2010,09,14,09,50,12.90
2010,09,14,09,51,12.90
2010,09,14,09,52,12.90
2010,09,14,09,53,12.90
2010,09,14,09,54,13.00
2010,09,14,09,55,13.00
2010,09,14,09,56,13.00
2010,09,14,09,57,13.10
2010,09,14,09,58,13.10
2010,09,14,09,59,13.20
2010,09,14,10,00,13.30
2010,09,14,10,01,13.30
2010,09,14,10,02,13.30
2010,09,14,10,03,13.30
2010,09,14,10,04,13.30
2010,09,14,10,05,13.20
2010,09,14,10,06,13.20
2010,09,14,10,07,13.10
2010,09,14,10,08,13.10
2010,09,14,10,09,13.10
2010,09,14,10,10,13.10
2010,09,14,10,11,13.10
2010,09,14,10,12,13.10
2010,09,14,10,13,13.10
2010,09,14,10,14,13.10
2010,09,14,10,15,13.10
2010,09,14,10,16,13.20
2010,09,14,10,17,13.20
2010,09,14,10,18,13.30
2010,09,14,10,19,13.40
2010,09,14,10,20,13.50
2010,09,14,10,21,13.60
2010,09,14,10,22,13.60
2010,09,14,10,23,13.70
2010,09,14,10,24,13.70
2010,09,14,10,25,13.80
2010,09,14,10,26,13.80
2010,09,14,10,27,13.90
2010,09,14,10,28,14.00
2010,09,14,10,29,14.10
2010,09,14,10,30,14.20
2010,09,14,10,31,14.30
2010,09,14,10,32,14.40
2010,09,14,10,33,14.50
2010,09,14,10,34,14.60
2010,09,14,10,35,14.70
2010,09,14,10,36,14.80
2010,09,14,10,37,14.90
2010,09,14,10,38,15.00
2010,09,14,10,39,15.00
2010,09,14,10,40,15.00
2010,09,14,10,41,15.00
2010,09,14,10,42,15.10
2010,09,14,10,43,15.20
2010,09,14,10,44,15.30
2010,09,14,10,45,15.30
2010,09,14,10,46,15.40
2010,09,14,10,47,15.40
2010,09,14,10,48,15.50
2010,09,14,10,49,15.60
2010,09,14,10,50,15.70
2010,09,14,10,51,15.70
2010,09,14,10,52,15.70
2010,09,14,10,53,15.80
2010,09,14,10,54,15.80
2010,09,14,10,55,15.80
2010,09,14,10,56,15.80
2010,09,14,10,57,15.90
2010,09,14,10,58,15.90
2010,09,14,10,59,15.90
2010,09,14,11,00,15.90
2010,09,14,11,01,16.00
2010,09,14,11,02,16.00
2010,09,14,11,03,16.10
2010,09,14,11,04,16.10
2010,09,14,11,05,16.20
2010,09,14,11,06,16.20
2010,09,14,11,07,16.20
2010,09,14,11,08,16.20
2010,09,14,11,09,16.20
2010,09,14,11,10,16.10
2010,09,14,11,11,16.10
2010,09,14,11,12,16.10
2010,09,14,11,13,16.10
2010,09,14,11,14,16.00
2010,09,14,11,15,16.00
2010,09,14,11,16,16.00
2010,09,14,11,17,16.00
2010,09,14,11,18,16.10
2010,09,14,11,19,16.10
2010,09,14,11,20,16.10
2010,09,14,11,21,16.00
2010,09,14,11,22,16.00
2010,09,14,11,23,16.00
2010,09,14,11,24,16.00
2010,09,14,11,25,16.00
2010,09,14,11,26,15.90
2010,09,14,11,27,15.90
2010,09,14,11,28,15.90
2010,09,14,11,29,16.00
2010,09,14,11,30,16.00
2010,09,14,11,31,16.00
2010,09,14,11,32,16.00
2010,09,14,11,33,16.00
2010,09,14,11,34,16.10
2010,09,14,11,35,16.10
2010,09,14,11,36,16.10
2010,09,14,11,37,16.10
2010,09,14,11,38,16.10
2010,09,14,11,39,16.20
2010,09,14,11,40,16.20
2010,09,14,11,41,16.20
2010,09,14,11,42,16.30
2010,09,14,11,43,16.30
2010,09,14,11,44,16.40
2010,09,14,11,45,16.40
2010,09,14,11,46,16.50
2010,09,14,11,47,16.50
2010,09,14,11,48,16.60
2010,09,14,11,49,16.60
2010,09,14,11,50,16.70
2010,09,14,11,51,16.70
2010,09,14,11,52,16.80
2010,09,14,11,53,16.90
2010,09,14,11,54,16.90
2010,09,14,11,55,16.90
2010,09,14,11,56,17.00
2010,09,14,11,57,17.10
2010,09,14,11,58,17.10
2010,09,14,11,59,17.10
2010,09,14,12,00,17.20
2010,09,14,12,01,17.20
2010,09,14,12,02,17.30
2010,09,14,12,03,17.40
2010,09,14,12,04,17.50
2010,09,14,12,05,17.60
2010,09,14,12,06,17.60
2010,09,14,12,07,17.70
2010,09,14,12,08,17.70
2010,09,14,12,09,17.80
2010,09,14,12,10,17.80
2010,09,14,12,11,17.80
2010,09,14,12,12,17.90
2010,09,14,12,13,17.90
2010,09,14,12,14,17.90
2010,09,14,12,15,17.90
2010,09,14,12,16,17.90
2010,09,14,12,17,17.90
2010,09,14,12,18,17.90
2010,09,14,12,19,17.90
2010,09,14,12,20,18.00
2010,09,14,12,21,18.00
2010,09,14,12,22,18.10
2010,09,14,12,23,18.00
2010,09,14,12,24,18.00
2010,09,14,12,25,18.00
2010,09,14,12,26,18.00
2010,09,14,12,27,18.00
2010,09,14,12,28,18.00
2010,09,14,12,29,18.10
2010,09,14,12,30,18.10
2010,09,14,12,31,18.10
2010,09,14,12,32,18.10
2010,09,14,12,33,18.10
2010,09,14,12,34,18.10
2010,09,14,12,35,18.10
2010,09,14,12,36,18.10
2010,09,14,12,37,18.10
2010,09,14,12,38,18.10
2010,09,14,12,39,18.20
2010,09,14,12,40,18.20
2010,09,14,12,41,18.20
2010,09,14,12,42,18.20
2010,09,14,12,43,18.20
2010,09,14,12,44,18.20
2010,09,14,12,45,18.20
2010,09,14,12,46,18.20
2010,09,14,12,47,18.20
2010,09,14,12,48,18.20
2010,09,14,12,49,18.20
2010,09,14,12,50,18.20
2010,09,14,12,51,18.20
2010,09,14,12,52,18.20
2010,09,14,12,53,18.10
2010,09,14,12,54,18.10
2010,09,14,12,55,18.10
2010,09,14,12,56,18.10
2010,09,14,12,57,18.00
2010,09,14,12,58,18.00
2010,09,14,12,59,18.00
2010,09,14,13,00,18.00
2010,09,14,13,01,18.00
2010,09,14,13,02,18.00
2010,09,14,13,03,18.10
2010,09,14,13,04,18.10
2010,09,14,13,05,18.10
2010,09,14,13,06,18.10
2010,09,14,13,07,18.10
2010,09,14,13,08,18.10
2010,09,14,13,09,18.10
2010,09,14,13,10,18.00
2010,09,14,13,11,18.00
2010,09,14,13,12,18.00
2010,09,14,13,13,18.00
2010,09,14,13,14,18.00
2010,09,14,13,15,18.10
2010,09,14,13,16,18.10
2010,09,14,13,17,18.20
2010,09,14,13,18,18.20
2010,09,14,13,19,18.20
2010,09,14,13,20,18.30
2010,09,14,13,21,18.30
2010,09,14,13,22,18.40
2010,09,14,13,23,18.40
2010,09,14,13,24,18.40
2010,09,14,13,25,18.40
2010,09,14,13,26,18.40
2010,09,14,13,27,18.40
2010,09,14,13,28,18.40
2010,09,14,13,29,18.40
2010,09,14,13,30,18.30
2010,09,14,13,31,18.30
2010,09,14,13,32,18.40
2010,09,14,13,33,18.40
2010,09,14,13,34,18.40
2010,09,14,13,35,18.40
2010,09,14,13,36,18.50
2010,09,14,13,37,18.50
2010,09,14,13,38,18.50
2010,09,14,13,39,18.50
2010,09,14,13,40,18.60
2010,09,14,13,41,18.60
2010,09,14,13,42,18.60
2010,09,14,13,43,18.70
2010,09,14,13,44,18.70
2010,09,14,13,45,18.80
2010,09,14,13,46,18.80
2010,09,14,13,47,18.80
2010,09,14,13,48,18.80
2010,09,14,13,49,18.90
2010,09,14,13,50,18.90
2010,09,14,13,51,18.90
2010,09,14,13,52,18.90
2010,09,14,13,53,18.90
2010,09,14,13,54,18.90
2010,09,14,13,55,18.90
2010,09,14,13,56,18.90
2010,09,14,13,57,19.00
2010,09,14,13,58,19.00
2010,09,14,13,59,19.00
2010,09,14,14,00,19.10
2010,09,14,14,01,19.10
2010,09,14,14,02,19.20
2010,09,14,14,03,19.20
2010,09,14,14,04,19.20
2010,09,14,14,05,19.20
2010,09,14,14,06,19.20
2010,09,14,14,07,19.20
2010,09,14,14,08,19.20
2010,09,14,14,09,19.20
2010,09,14,14,10,19.20
2010,09,14,14,11,19.20
2010,09,14,14,12,19.20
2010,09,14,14,13,19.20
2010,09,14,14,14,19.30
2010,09,14,14,15,19.30
2010,09,14,14,16,19.30
2010,09,14,14,17,19.30
2010,09,14,14,18,19.40
2010,09,14,14,19,19.50
2010,09,14,14,20,19.50
2010,09,14,14,21,19.60
2010,09,14,14,22,19.60
2010,09,14,14,23,19.60
2010,09,14,14,24,19.60
2010,09,14,14,25,19.60
2010,09,14,14,26,19.60
2010,09,14,14,27,19.70
2010,09,14,14,28,19.70
2010,09,14,14,29,19.80
2010,09,14,14,30,19.80
2010,09,14,14,31,19.80
2010,09,14,14,32,19.70
2010,09,14,14,33,19.70
2010,09,14,14,34,19.70
2010,09,14,14,35,19.60
2010,09,14,14,36,19.60
2010,09,14,14,37,19.60
2010,09,14,14,38,19.60
2010,09,14,14,39,19.60
2010,09,14,14,40,19.60
2010,09,14,14,41,19.70
2010,09,14,14,42,19.70
2010,09,14,14,43,19.70
2010,09,14,14,44,19.70
2010,09,14,14,45,19.70
2010,09,14,14,46,19.70
2010,09,14,14,47,19.70
2010,09,14,14,48,19.70
2010,09,14,14,49,19.80
2010,09,14,14,50,19.80
2010,09,14,14,51,19.80
2010,09,14,14,52,19.70
2010,09,14,14,53,19.70
2010,09,14,14,54,19.70
2010,09,14,14,55,19.70
2010,09,14,14,56,19.70
2010,09,14,14,57,19.80
2010,09,14,14,58,19.90
2010,09,14,14,59,19.90
2010,09,14,15,00,19.90
2010,09,14,15,01,20.00
2010,09,14,15,02,20.00
2010,09,14,15,03,19.90
2010,09,14,15,04,19.90
2010,09,14,15,05,19.90
2010,09,14,15,06,19.80
2010,09,14,15,07,19.70
2010,09,14,15,08,19.60
2010,09,14,15,09,19.60
2010,09,14,15,10,19.70
2010,09,14,15,11,19.70
2010,09,14,15,12,19.70
2010,09,14,15,13,19.80
2010,09,14,15,14,19.80
2010,09,14,15,15,19.80
2010,09,14,15,16,19.80
2010,09,14,15,17,19.80
2010,09,14,15,18,19.70
2010,09,14,15,19,19.70
2010,09,14,15,20,19.70
2010,09,14,15,21,19.80
2010,09,14,15,22,19.80
2010,09,14,15,23,19.80
2010,09,14,15,24,19.90
2010,09,14,15,25,19.90
2010,09,14,15,26,20.00
2010,09,14,15,27,20.00
2010,09,14,15,28,19.90
2010,09,14,15,29,19.90
2010,09,14,15,30,20.00
2010,09,14,15,31,20.00
2010,09,14,15,32,20.00
2010,09,14,15,33,20.10
2010,09,14,15,34,20.20
2010,09,14,15,35,20.20
2010,09,14,15,36,20.20
2010,09,14,15,37,20.30
2010,09,14,15,38,20.30
2010,09,14,15,39,20.30
2010,09,14,15,40,20.30
2010,09,14,15,41,20.20
2010,09,14,15,42,20.20
2010,09,14,15,43,20.10
2010,09,14,15,44,20.10
2010,09,14,15,45,20.10
2010,09,14,15,46,20.10
2010,09,14,15,47,20.10
2010,09,14,15,48,20.10
2010,09,14,15,49,20.20
2010,09,14,15,50,20.20
2010,09,14,15,51,20.30
2010,09,14,15,52,20.30
2010,09,14,15,53,20.20
2010,09,14,15,54,20.20
2010,09,14,15,55,20.30
2010,09,14,15,56,20.30
2010,09,14,15,57,20.40
2010,09,14,15,58,20.40
2010,09,14,15,59,20.40
2010,09,14,16,00,20.40
2010,09,14,16,01,20.40
2010,09,14,16,02,20.40
2010,09,14,16,03,20.30
2010,09,14,16,04,20.30
2010,09,14,16,05,20.40
2010,09,14,16,06,20.40
2010,09,14,16,07,20.40
2010,09,14,16,08,20.40
2010,09,14,16,09,20.40
2010,09,14,16,10,20.40
2010,09,14,16,11,20.40
2010,09,14,16,12,20.40
2010,09,14,16,13,20.30
2010,09,14,16,14,20.30
2010,09,14,16,15,20.30
2010,09,14,16,16,20.30
2010,09,14,16,17,20.40
2010,09,14,16,18,20.40
2010,09,14,16,19,20.40
2010,09,14,16,20,20.50
2010,09,14,16,21,20.50
2010,09,14,16,22,20.50
2010,09,14,16,23,20.50
2010,09,14,16,24,20.40
2010,09,14,16,25,20.50
2010,09,14,16,26,20.50
2010,09,14,16,27,20.50
2010,09,14,16,28,20.50
2010,09,14,16,29,20.50
2010,09,14,16,30,20.50
2010,09,14,16,31,20.60
2010,09,14,16,32,20.60
2010,09,14,16,33,20.70
2010,09,14,16,34,20.70
2010,09,14,16,35,20.70
2010,09,14,16,36,20.70
2010,09,14,16,37,20.70
2010,09,14,16,38,20.70
2010,09,14,16,39,20.70
2010,09,14,16,40,20.60
2010,09,14,16,41,20.60
2010,09,14,16,42,20.60
2010,09,14,16,43,20.60
2010,09,14,16,44,20.50
2010,09,14,16,45,20.50
2010,09,14,16,46,20.50
2010,09,14,16,47,20.50
2010,09,14,16,48,20.40
2010,09,14,16,49,20.40
2010,09,14,16,50,20.40
2010,09,14,16,51,20.50
2010,09,14,16,52,20.50
2010,09,14,16,53,20.40
2010,09,14,16,54,20.40
2010,09,14,16,55,20.40
2010,09,14,16,56,20.40
2010,09,14,16,57,20.30
2010,09,14,16,58,20.30
2010,09,14,16,59,20.20
2010,09,14,17,00,20.20
2010,09,14,17,01,20.20
2010,09,14,17,02,20.20
2010,09,14,17,03,20.20
2010,09,14,17,04,20.20
2010,09,14,17,05,20.20
2010,09,14,17,06,20.20
2010,09,14,17,07,20.20
2010,09,14,17,08,20.20
2010,09,14,17,09,20.20
2010,09,14,17,10,20.10
2010,09,14,17,11,20.10
2010,09,14,17,12,20.20
2010,09,14,17,13,20.20
2010,09,14,17,14,20.20
2010,09,14,17,15,20.20
2010,09,14,17,16,20.20
2010,09,14,17,17,20.20
2010,09,14,17,18,20.30
2010,09,14,17,19,20.30